Ketchikan, AK

4:25 AM AKDT on August 15, 2018 (GMT -0800)
Ketchikan International

Weather History for PAKT - April, 2018

Change the Weather History Date:

Monday, April 9, 2018

  Actual Average Record
Temperature  
Mean Temperature 46 °F -  
Max Temperature 48 °F 48 °F - (0)
Min Temperature 45 °F 35 °F - (0)
Degree Days  
Heating Degree Days 18    
Moisture  
Dew Point 44 °F    
Average Humidity 91    
Maximum Humidity 97    
Minimum Humidity 76    
Precipitation  
Precipitation 0.18 in - - ()
Sea Level Pressure  
Sea Level Pressure 29.96 in    
Wind  
Wind Speed 8 mph (SE)    
Max Wind Speed 18 mph    
Max Gust Speed 26 mph    
Visibility 8 miles    
Events Rain    
T = Trace of Precipitation, MM = Missing Value Source: NWS Daily Summary

Daily Weather History Graph

Daily Weather History Graph

Search for Another Location

Airport or City:

Astronomy

Apr. 09, 2018 Rise Set
Actual Time 5:57 AM AKDT 7:40 PM AKDT
Civil Twilight 5:18 AM AKDT 8:19 PM AKDT
Nautical Twilight 4:31 AM AKDT 9:07 PM AKDT
Astronomical Twilight 3:36 AM AKDT 10:02 PM AKDT
Moon 3:51 AM AKDT (4/9) 12:16 PM AKDT (4/9)
Length of Visible Light 15h 00m
Length of Day
13h 43m
Waning Crescent, 36% of the Moon is Illuminated
Apr 9
Waning Crescent
Apr 15
New
Apr 22
First Quarter
Apr 29
Full
May 7
Last Quarter

Hourly Weather History & Observations

Time (AKDT) Temp. Windchill Dew Point Humidity Pressure Visibility Wind Dir Wind Speed Gust Speed Precip Events Conditions
12:23 AM 45.0 °F 42.6 °F 44.1 °F 97% 30.00 in 10.0 mi ESE 4.6 mph - N/A   Overcast
12:39 AM 46.0 °F 43.1 °F 44.1 °F 93% 30.00 in 10.0 mi ESE 5.8 mph - N/A   Overcast
12:53 AM 46.0 °F 42.5 °F 45.0 °F 96% 30.01 in 10.0 mi SE 6.9 mph - N/A   Overcast
1:15 AM 46.0 °F 43.1 °F 44.1 °F 93% 30.01 in 10.0 mi SE 5.8 mph - N/A   Overcast
1:45 AM 46.0 °F 43.1 °F 45.0 °F 96% 30.01 in 10.0 mi ESE 5.8 mph - N/A   Overcast
1:53 AM 46.0 °F 43.1 °F 44.1 °F 93% 30.01 in 10.0 mi SE 5.8 mph - N/A   Overcast
2:50 AM 46.4 °F 44.3 °F 44.6 °F 93% 30.01 in 10.0 mi SSE 4.6 mph - N/A   Overcast
2:53 AM 46.0 °F 43.9 °F 45.0 °F 96% 30.01 in 10.0 mi SE 4.6 mph - N/A   Overcast
3:31 AM 46.0 °F 42.5 °F 44.1 °F 93% 30.01 in 7.0 mi ESE 6.9 mph - 0.00 in Rain Light Rain
3:53 AM 45.0 °F 42.6 °F 44.1 °F 97% 30.01 in 10.0 mi SE 4.6 mph - 0.00 in   Overcast
4:24 AM 46.0 °F 43.1 °F 44.1 °F 93% 30.01 in 6.0 mi SE 5.8 mph - 0.01 in Rain Light Rain
4:46 AM 45.0 °F 41.8 °F 44.1 °F 97% 30.01 in 3.0 mi SE 5.8 mph - 0.03 in Rain Light Rain
4:53 AM 45.0 °F 41.8 °F 44.1 °F 97% 30.02 in 4.0 mi SE 5.8 mph - 0.04 in Rain Light Rain
5:53 AM 46.0 °F 43.9 °F 45.0 °F 96% 30.02 in 4.0 mi SE 4.6 mph - 0.06 in Rain Light Rain
6:05 AM 46.4 °F 43.5 °F 44.6 °F 93% 30.01 in 4.0 mi SSE 5.8 mph - N/A Rain Light Rain
7:53 AM 46.4 °F 40.7 °F 44.6 °F 93% 30.01 in 9.0 mi SE 12.7 mph - N/A   Overcast
8:53 AM 46.4 °F 39.5 °F 44.6 °F 93% 30.01 in 3.0 mi SE 17.3 mph 26.5 mph N/A Rain Light Rain
9:53 AM 46.4 °F 40.7 °F 44.6 °F 93% 30.01 in 3.0 mi SSE 12.7 mph - N/A Rain Light Rain
10:53 AM 48.2 °F - 44.6 °F 87% 30.02 in 10.0 mi SE 17.3 mph - N/A   Overcast
11:53 AM 46.4 °F 39.5 °F 44.6 °F 93% 30.02 in 7.0 mi SE 17.3 mph 23.0 mph N/A Rain Light Rain
12:53 PM 46.4 °F 40.7 °F 42.8 °F 87% 30.01 in 10.0 mi SSE 12.7 mph 19.6 mph N/A   Overcast
1:53 PM 48.2 °F - 44.6 °F 87% 29.99 in 10.0 mi SSE 12.7 mph - N/A   Overcast
2:53 PM 48.2 °F - 42.8 °F 82% 29.97 in 10.0 mi SE 16.1 mph - N/A   Overcast
3:53 PM 48.0 °F - 43.0 °F 83% 29.95 in 6.0 mi SSE 15.0 mph 21.9 mph 0.01 in Rain Light Rain
4:53 PM 48.2 °F - 42.8 °F 82% 29.92 in 10.0 mi SE 18.4 mph 26.5 mph N/A Rain Light Rain
5:53 PM 48.2 °F - 41.0 °F 76% 29.90 in 10.0 mi SSE 12.7 mph 21.9 mph N/A Rain Light Rain
6:53 PM 46.4 °F 40.4 °F 42.8 °F 87% 29.88 in 6.0 mi SE 13.8 mph 23.0 mph N/A Rain Light Rain
7:53 PM 46.0 °F 40.6 °F 43.0 °F 89% 29.87 in 9.0 mi SSE 11.5 mph - 0.04 in Rain Light Rain
8:53 PM 46.0 °F 41.0 °F 44.1 °F 93% 29.85 in 10.0 mi SSE 10.4 mph - 0.03 in Rain Light Rain
9:53 PM 46.9 °F - 43.0 °F 86% 29.81 in 10.0 mi South 8.1 mph 16.1 mph 0.00 in   Overcast
10:53 PM 46.9 °F - 43.0 °F 86% 29.77 in 10.0 mi Variable 5.8 mph - N/A   Overcast
11:53 PM 46.0 °F 43.9 °F 43.0 °F 89% 29.73 in 10.0 mi ESE 4.6 mph - N/A   Mostly Cloudy